[[{"header":{"parameterUnit":"m.s-1","parameterCategory":1,"la1":30.2991,"la2":30.254,"lo1":-89.0895,"lo2":-89.0444,"dy":0.0017,"dx":0.0017,"nx":28,"ny":28,"refTime":"2024-10-20T03:00:00:Z","depth":0,"parameterNumber":2,"parameterNumberName":"U-component_of_WINDS"},"data":[0,0,0,0,0,0,0,0,0,0,0,0,0,0,0,0,0,0,0,0,0,0,0,0,0,0,0,0,0,0,0,0,0,0,0,0,0,0,0,0,0,0,0,0,0,0,0,0,0,0,0,0,0,0,0,0,0,0,-1.0833,-1.0832,0,-1.0757,-1.0756,-1.0755,-1.0641,-1.0639,-1.0637,-1.0635,-1.0558,-1.0558,-1.0557,0,0,0,0,0,0,0,0,0,0,0,0,0,-1.0882,-1.0881,-1.0833,-1.0832,-1.0831,-1.0757,-1.0756,-1.0755,-1.0641,-1.0639,-1.0637,-1.0634,-1.0558,-1.0558,-1.0557,0,0,0,0,0,0,0,0,0,0,0,0,0,-1.0839,-1.0881,-1.0833,-1.0766,-1.0759,-1.0757,-1.0756,-1.0755,-1.0642,-1.0639,-1.0636,-1.0633,-1.0558,-1.0558,-1.0557,-1.0616,0,0,-1.0557,-1.0556,0,0,0,0,0,0,0,0,-1.0841,-1.0837,-1.0777,-1.077,-1.0763,-1.0705,-1.0744,-1.0708,-1.0643,-1.0686,-1.0635,-1.0632,-1.0609,-1.0605,-1.0597,-1.0612,-1.0609,-1.0557,-1.0556,-1.0556,-1.0556,0,0,0,0,0,0,0,-1.0844,-1.084,-1.0803,-1.0776,-1.0767,-1.0739,-1.073,-1.0737,-1.0666,-1.0682,-1.0674,-1.0666,-1.0605,-1.0598,-1.0594,-1.0608,-1.0557,-1.0556,-1.0556,-1.0556,-1.0668,-1.0671,0,0,0,0,0,0,-1.0857,-1.0843,-1.0805,-1.0801,-1.0795,-1.0741,-1.073,-1.0727,-1.0665,-1.0653,-1.0669,-1.0661,-1.06,-1.0595,-1.0591,-1.0657,-1.0556,-1.0556,-1.0556,-1.0665,-1.0669,-1.0673,0,0,0,0,0,0,-1.0859,-1.0855,-1.0808,-1.0819,-1.0811,-1.0743,-1.074,-1.0727,-1.0719,-1.0655,-1.0642,-1.0675,-1.0597,-1.0592,-1.0611,-1.0653,-1.0556,-1.0556,-1.0662,-1.0666,-1.0671,-1.079,0,0,0,0,0,0,-1.0861,-1.0856,-1.0878,-1.0821,-1.0811,-1.083,-1.0743,-1.0728,-1.0719,-1.0708,-1.0657,-1.0646,-1.0594,-1.0612,-1.0611,-1.0651,-1.0555,-1.0658,-1.0664,-1.0669,-1.0782,-1.0798,-1.0812,0,0,0,0,0,-1.0863,-1.0914,-1.0879,-1.0876,-1.0837,-1.0832,-1.0827,-1.0767,-1.0723,-1.0744,-1.0703,-1.0647,-1.0648,-1.0615,-1.0612,-1.0653,-1.0655,-1.0662,-1.0669,-1.0775,-1.0795,-1.0811,0,0,0,0,0,0,-1.0978,-1.0905,-1.0866,-1.0901,-1.0874,-1.0813,-1.0838,-1.0789,-1.0774,-1.0765,-1.069,-1.068,-1.0709,-1.0682,-1.0647,-1.0707,-1.0643,-1.065,-1.0724,-1.0742,-1.0757,-1.0764,-1.0555,0,0,0,0,0,-1.1008,-1.101,-1.0946,-1.0983,-1.0971,-1.0907,-1.0903,-1.0859,-1.0828,-1.0816,-1.0776,-1.0749,-1.0742,-1.074,-1.0731,-1.0776,-1.0764,-1.0803,-1.0818,-1.083,-1.0838,-1.0862,-1.0879,-1.0696,-1.0696,-1.0696,0,0,-1.1069,-1.1029,-1.1035,-1.1005,-1.0979,-1.0984,-1.0899,-1.0907,-1.091,-1.0817,-1.0834,-1.0804,-1.0768,-1.0801,-1.0813,-1.0779,-1.0886,-1.0839,-1.085,-1.0851,-1.0871,-1.0888,-1.0904,-1.0701,-1.07,-1.0699,0,0,-1.1183,-1.1153,-1.1181,-1.1156,-1.1117,-1.1074,-1.1081,-1.1028,-1.1005,-1.1019,-1.095,-1.0952,-1.0943,-1.0921,-1.0909,-1.1014,-1.0963,-1.1013,-1.1093,-1.1116,-1.1131,-1.1143,-1.1184,-1.1199,-1.102,-1.1021,-1.1021,0,-1.1265,-1.1269,-1.1201,-1.1215,-1.1204,-1.1119,-1.1148,-1.1127,-1.1087,-1.1082,-1.1044,-1.1032,-1.1001,-1.1029,-1.1055,-1.1046,-1.1053,-1.102,-1.1134,-1.1146,-1.1157,-1.1194,-1.1209,-1.1027,-1.1026,-1.1026,-1.1025,0,-1.1372,-1.1376,-1.1403,-1.1368,-1.1359,-1.138,-1.1316,-1.1316,-1.1272,-1.1233,-1.125,-1.121,-1.1192,-1.1194,-1.1151,-1.1216,-1.1197,-1.1148,-1.1082,-1.1182,-1.1216,-1.123,-1.1037,-1.1034,-1.1032,-1.1031,0,0,-1.156,-1.1486,-1.1497,-1.1481,-1.1431,-1.1433,-1.145,-1.1432,-1.1434,-1.1409,-1.1423,-1.1416,-1.137,-1.1357,-1.131,-1.133,-1.1419,-1.1278,-1.1276,-1.1309,-1.1491,-1.1531,-1.1549,-1.1383,-1.1386,-1.1388,-1.1495,0,-1.1667,-1.1692,-1.1632,-1.1672,-1.1676,-1.1595,-1.1609,-1.1581,-1.1545,-1.1543,-1.1502,-1.15,-1.1438,-1.143,-1.1446,-1.1405,-1.1456,-1.1396,-1.1397,-1.1398,-1.1413,-1.1566,-1.1608,-1.1712,-1.1508,-1.151,-1.1511,0,-1.1796,-1.1779,-1.182,-1.1768,-1.1768,-1.1782,-1.1761,-1.176,-1.1726,-1.1698,-1.1682,-1.1628,-1.1641,-1.1576,-1.1594,-1.1555,-1.1551,-1.1531,-1.1533,-1.1534,-1.1464,-1.1574,-1.1743,-1.176,-1.1531,-1.153,-1.1528,0,-1.1934,-1.1919,-1.1942,-1.193,-1.187,-1.1882,-1.1858,-1.182,-1.1814,-1.1795,-1.179,-1.1773,-1.1765,-1.1754,-1.1696,-1.1653,-1.1722,-1.1651,-1.1701,-1.1703,-1.1723,-1.1723,-1.1897,-1.1715,-1.1715,-1.1714,-1.1714,0,-1.2062,-1.2091,-1.2003,-1.2018,-1.2048,-1.1977,-1.2009,-1.1977,-1.1944,-1.1952,-1.1879,-1.1887,-1.1809,-1.1809,-1.1763,-1.1787,-1.1783,-1.1762,-1.175,-1.1771,-1.1774,-1.177,-1.1763,-1.1718,-1.1717,-1.1717,-1.1716,0,-1.2222,-1.2164,-1.2184,-1.2125,-1.2111,-1.2136,-1.2086,-1.2097,-1.2055,-1.2066,-1.2064,-1.1999,-1.1995,-1.1936,-1.1919,-1.1888,-1.1931,-1.1904,-1.1944,-1.1936,-1.1991,-1.1988,-1.2171,-1.2193,-1.1994,-1.1996,-1.1998,0,-1.231,-1.233,-1.2273,-1.2273,-1.2252,-1.2252,-1.2245,-1.2175,-1.2171,-1.2133,-1.215,-1.214,-1.2129,-1.2127,-1.2078,-1.2065,-1.204,-1.2104,-1.2037,-1.2058,-1.2045,-1.2046,-1.2048,-1.212,-1.2123,-1.2125,-1.2126,0,-1.2473,-1.2443,-1.2435,-1.2418,-1.2411,-1.2394,-1.2372,-1.2376,-1.2299,-1.2298,-1.2293,-1.2285,-1.2267,-1.2259,-1.2238,-1.2212,-1.2158,-1.2147,-1.2159,-1.2182,-1.2205,-1.2197,-1.1986,-1.2144,-1.2143,-1.2141,-1.214,-1.214,-1.2601,-1.2616,-1.2579,-1.2573,-1.2549,-1.2531,-1.2539,-1.2498,-1.2493,-1.2474,-1.2432,-1.2434,-1.2399,-1.2364,-1.2344,-1.2345,-1.2312,-1.2328,-1.2332,-1.2338,-1.2351,-1.2202,-1.234,-1.2339,-1.2339,-1.2338,-1.2338,0,-1.2763,-1.2735,-1.273,-1.2702,-1.2698,-1.2644,-1.2617,-1.2618,-1.2621,-1.2592,-1.2582,-1.2578,-1.2569,-1.252,-1.2506,-1.2516,-1.2491,-1.2515,-1.2516,-1.2512,-1.2379,-1.2373,-1.2536,-1.2536,-1.2536,-1.2536,-1.2536,-1.2536,-1.2848,-1.2871,-1.2837,-1.2848,-1.2818,-1.282,-1.281,-1.2792,-1.277,-1.2768,-1.276,-1.2727,-1.2691,-1.2674,-1.2664,-1.2649,-1.2649,-1.2683,-1.2661,-1.2539,-1.252,-1.2502,-1.2496,-1.2683,-1.2683,-1.2793,-1.2794,-1.2795]},{"header":{"parameterUnit":"m.s-1","parameterCategory":1,"la1":30.2991,"la2":30.254,"lo1":-89.0895,"lo2":-89.0444,"dy":0.0017,"dx":0.0017,"nx":28,"ny":28,"refTime":"2024-10-20T03:00:00:Z","depth":0,"parameterNumber":3,"parameterNumberName":"V-component_of_WINDS"},"data":[0,0,0,0,0,0,0,0,0,0,0,0,0,0,0,0,0,0,0,0,0,0,0,0,0,0,0,0,0,0,0,0,0,0,0,0,0,0,0,0,0,0,0,0,0,0,0,0,0,0,0,0,0,0,0,0,0,0,0.1242,0.1241,0,0.1207,0.1207,0.1206,0.1213,0.1214,0.1215,0.1215,0.1177,0.1176,0.1174,0,0,0,0,0,0,0,0,0,0,0,0,0,0.1312,0.1311,0.1242,0.1241,0.1241,0.1207,0.1207,0.1206,0.1213,0.1214,0.1215,0.1216,0.1178,0.1176,0.1174,0,0,0,0,0,0,0,0,0,0,0,0,0,0.128,0.131,0.1242,0.124,0.124,0.1207,0.1207,0.1206,0.1213,0.1214,0.1215,0.1216,0.1179,0.1176,0.1174,0.1139,0,0,0.1166,0.1165,0,0,0,0,0,0,0,0,0.1281,0.1277,0.1241,0.124,0.124,0.1216,0.1218,0.1184,0.1213,0.1223,0.1215,0.1217,0.1189,0.1186,0.1177,0.1138,0.1136,0.1166,0.1165,0.1164,0.1163,0,0,0,0,0,0,0,0.1284,0.1279,0.1228,0.1241,0.124,0.1241,0.1237,0.1211,0.1201,0.1222,0.1223,0.1219,0.1189,0.118,0.1176,0.1136,0.1166,0.1164,0.1163,0.1162,0.1065,0.1064,0,0,0,0,0,0,0.1287,0.128,0.1229,0.1227,0.1264,0.1239,0.1235,0.1222,0.1201,0.1199,0.1218,0.1219,0.1183,0.1179,0.1175,0.1132,0.1164,0.1161,0.116,0.1066,0.1065,0.1064,0,0,0,0,0,0,0.1288,0.1282,0.123,0.1254,0.1247,0.1237,0.1222,0.1221,0.1212,0.1198,0.1196,0.121,0.1184,0.1178,0.1148,0.1131,0.116,0.1158,0.1068,0.1066,0.1064,0.1048,0,0,0,0,0,0,0.129,0.1283,0.127,0.1253,0.1246,0.1205,0.1222,0.122,0.1208,0.1209,0.119,0.1188,0.1184,0.1152,0.1146,0.1129,0.1156,0.1069,0.1067,0.1065,0.105,0.1046,0.1042,0,0,0,0,0,0.1293,0.1266,0.1269,0.1263,0.123,0.1204,0.1199,0.1196,0.1207,0.1193,0.1185,0.1189,0.1135,0.1149,0.1142,0.1124,0.107,0.1068,0.1065,0.1051,0.1047,0.1042,0,0,0,0,0,0,0.128,0.1264,0.1267,0.1235,0.1221,0.1205,0.1188,0.1191,0.1173,0.1175,0.1171,0.1167,0.1136,0.1127,0.1143,0.1089,0.1104,0.11,0.1096,0.1091,0.1087,0.1089,0.1154,0,0,0,0,0,0.1274,0.1254,0.1241,0.1214,0.1207,0.1199,0.1187,0.1186,0.1171,0.1165,0.1154,0.1138,0.1118,0.1104,0.1085,0.1049,0.1044,0.1033,0.103,0.1027,0.1023,0.1002,0.0997,0.1056,0.1056,0.1056,0,0,0.1259,0.1249,0.1236,0.1211,0.12,0.1179,0.1194,0.1171,0.1155,0.1161,0.1132,0.1123,0.1106,0.1073,0.1057,0.1064,0.1006,0.1024,0.1021,0.1019,0.0999,0.0993,0.0988,0.1054,0.1054,0.1055,0,0,0.1223,0.1214,0.1189,0.1178,0.1162,0.1157,0.1151,0.1135,0.113,0.1101,0.1104,0.1086,0.1051,0.1038,0.1026,0.0986,0.0989,0.098,0.096,0.094,0.0935,0.0931,0.0915,0.0909,0.0976,0.0976,0.0976,0,0.1207,0.1177,0.1176,0.1153,0.1141,0.1147,0.1122,0.1111,0.1088,0.108,0.1088,0.1044,0.1033,0.0996,0.0987,0.0978,0.097,0.0981,0.0936,0.0932,0.0928,0.0913,0.0907,0.0975,0.0975,0.0976,0.0976,0,0.1158,0.1137,0.1119,0.1098,0.1085,0.1061,0.1055,0.1042,0.1042,0.1036,0.1006,0.0993,0.097,0.0962,0.0962,0.0925,0.093,0.0937,0.0951,0.0921,0.0907,0.0901,0.0974,0.0974,0.0974,0.0975,0,0,0.1111,0.109,0.1084,0.1074,0.1057,0.104,0.1016,0.0995,0.0983,0.0968,0.0947,0.0917,0.0924,0.0912,0.091,0.0893,0.086,0.0903,0.0902,0.0894,0.0817,0.081,0.0804,0.0863,0.0862,0.0861,0.0818,0,0.1071,0.103,0.1029,0.0991,0.097,0.0976,0.0955,0.0942,0.0936,0.0917,0.0911,0.0889,0.0901,0.0893,0.0877,0.0868,0.0845,0.0871,0.0842,0.0841,0.0844,0.0796,0.0789,0.0749,0.0813,0.0812,0.0811,0,0.1019,0.1003,0.0963,0.0949,0.094,0.0922,0.0902,0.0885,0.087,0.0867,0.0853,0.0854,0.0829,0.0846,0.081,0.0828,0.0816,0.081,0.0809,0.0804,0.0823,0.0788,0.0736,0.0729,0.0803,0.0803,0.0804,0,0.0987,0.0955,0.0927,0.0919,0.0902,0.0888,0.088,0.0866,0.0854,0.0837,0.0828,0.0808,0.0797,0.0781,0.0776,0.0789,0.074,0.0757,0.0735,0.0735,0.0723,0.0723,0.0666,0.0718,0.0719,0.0719,0.0719,0,0.0942,0.0917,0.0912,0.0894,0.0866,0.0865,0.0837,0.083,0.0818,0.0798,0.0802,0.0784,0.078,0.076,0.0756,0.0727,0.0722,0.0717,0.0716,0.0716,0.0716,0.0706,0.0708,0.0717,0.0717,0.0718,0.0718,0,0.0899,0.0896,0.0865,0.0852,0.0848,0.0828,0.0816,0.0798,0.0794,0.0769,0.0763,0.0755,0.0732,0.0726,0.0699,0.0696,0.066,0.0663,0.0665,0.0665,0.0643,0.0644,0.0576,0.0566,0.0627,0.0626,0.0626,0,0.087,0.0851,0.0836,0.0824,0.0815,0.0795,0.0783,0.0781,0.0768,0.0749,0.0734,0.0712,0.0694,0.0657,0.0647,0.0626,0.0627,0.0605,0.0624,0.0624,0.0624,0.0625,0.0622,0.06,0.06,0.0599,0.0599,0,0.0817,0.0817,0.0799,0.078,0.0765,0.075,0.0736,0.0726,0.0722,0.0707,0.0684,0.067,0.0642,0.062,0.0598,0.0589,0.0592,0.0593,0.0587,0.0585,0.0586,0.0583,0.0653,0.0594,0.0594,0.0595,0.0595,0.0595,0.0779,0.0762,0.0749,0.0729,0.0718,0.0705,0.0688,0.0681,0.0663,0.0641,0.0641,0.0616,0.0601,0.0573,0.0563,0.0542,0.0549,0.054,0.0537,0.0534,0.0531,0.0592,0.0538,0.0539,0.0539,0.0539,0.0539,0,0.0725,0.0717,0.0699,0.0679,0.0663,0.067,0.0655,0.064,0.0618,0.0605,0.0587,0.0561,0.0539,0.0529,0.0507,0.0492,0.0493,0.0486,0.0486,0.0484,0.0528,0.0535,0.0486,0.0486,0.0486,0.0486,0.0486,0.0486,0.0695,0.0666,0.0664,0.063,0.0622,0.0598,0.0588,0.0576,0.0565,0.0535,0.0518,0.0512,0.0499,0.0477,0.0457,0.0454,0.0445,0.0437,0.0435,0.0475,0.0481,0.0486,0.0492,0.0435,0.0435,0.0392,0.0392,0.0392]}]]